contact:dominique.lefevre@mio.osupytheas.fr, maurice.libes@osupytheas.fr, didier.mallarino@osupytheas.fr
Project:EMSO http://www.emso-fr.org/EMSO-France
Depth: 2436.0 m
Title:EMSO Ligure Ouest : Data MII capteur CSTAR
DateTime,Latitude,Longitude,Instrument_Serial,Reference_Counts,Signal_Counts,Corrected_Signal_raw_counts,Calculated_Beam_c_inverse_meters,Internal_thermistor_counts
DateTime,Latitude,Longitude,Instrument_Serial,Reference_Counts,Signal_Counts,Corrected_Signal_raw_counts,Calculated_Beam_c_inverse_meters,Internal_thermistor_counts
2022-02-10T00:01:55,42.805,6.029,CST-1368DR,4909,6138,13351,0.627,551
2022-02-10T00:04:56,42.805,6.029,CST-1368DR,4909,6137,13349,0.627,551
2022-02-10T00:07:58,42.805,6.029,CST-1368DR,4909,6128,13330,0.633,551
2022-02-10T00:10:59,42.805,6.029,CST-1368DR,4909,6137,13349,0.627,551
2022-02-10T00:14:01,42.805,6.029,CST-1368DR,4909,6136,13348,0.628,551
2022-02-10T00:17:02,42.805,6.029,CST-1368DR,4909,6137,13349,0.627,551
2022-02-10T00:20:04,42.805,6.029,CST-1368DR,4909,6138,13351,0.627,551
2022-02-10T00:23:06,42.805,6.029,CST-1368DR,4909,6137,13349,0.627,551
2022-02-10T00:26:07,42.805,6.029,CST-1368DR,4909,6138,13351,0.627,551
2022-02-10T00:29:09,42.805,6.029,CST-1368DR,4909,6136,13348,0.628,551
2022-02-10T00:32:10,42.805,6.029,CST-1368DR,4909,6136,13348,0.628,551
2022-02-10T00:35:12,42.805,6.029,CST-1368DR,4909,6135,13346,0.628,551
2022-02-10T00:38:14,42.805,6.029,CST-1368DR,4909,6136,13347,0.628,551
2022-02-10T00:41:15,42.805,6.029,CST-1368DR,4909,6132,13339,0.630,551
2022-02-10T00:44:17,42.805,6.029,CST-1368DR,4909,6135,13345,0.629,551
2022-02-10T00:47:18,42.805,6.029,CST-1368DR,4909,6136,13347,0.628,551
2022-02-10T00:50:20,42.805,6.029,CST-1368DR,4909,6135,13346,0.628,551
2022-02-10T00:53:21,42.805,6.029,CST-1368DR,4909,6136,13348,0.628,551
2022-02-10T00:56:23,42.805,6.029,CST-1368DR,4909,6136,13348,0.628,551
2022-02-10T00:59:25,42.805,6.029,CST-1368DR,4909,6136,13348,0.628,551
2022-02-10T01:02:26,42.805,6.029,CST-1368DR,4909,6137,13349,0.627,551
2022-02-10T01:05:28,42.805,6.029,CST-1368DR,4909,6134,13344,0.629,551
2022-02-10T01:08:29,42.805,6.029,CST-1368DR,4909,6136,13348,0.628,551
2022-02-10T01:11:31,42.805,6.029,CST-1368DR,4909,6135,13346,0.628,551
2022-02-10T01:14:32,42.805,6.029,CST-1368DR,4909,6134,13343,0.629,551
2022-02-10T01:17:34,42.805,6.029,CST-1368DR,4909,6136,13348,0.628,551
2022-02-10T01:20:36,42.805,6.029,CST-1368DR,4909,6134,13344,0.629,551
2022-02-10T01:23:37,42.805,6.029,CST-1368DR,4909,6135,13346,0.628,551
2022-02-10T01:26:39,42.805,6.029,CST-1368DR,4909,6135,13344,0.629,551
2022-02-10T01:29:40,42.805,6.029,CST-1368DR,4909,6136,13346,0.628,551
2022-02-10T01:32:42,42.805,6.029,CST-1368DR,4909,6135,13344,0.629,551
2022-02-10T01:35:44,42.805,6.029,CST-1368DR,4909,6135,13345,0.629,551
2022-02-10T01:38:45,42.805,6.029,CST-1368DR,4909,6136,13347,0.628,551
2022-02-10T01:41:47,42.805,6.029,CST-1368DR,4909,6136,13347,0.628,551
2022-02-10T01:44:48,42.805,6.029,CST-1368DR,4909,6136,13348,0.628,551
2022-02-10T01:47:50,42.805,6.029,CST-1368DR,4909,6130,13335,0.632,551
2022-02-10T01:50:51,42.805,6.029,CST-1368DR,4909,6135,13346,0.628,551
2022-02-10T01:53:53,42.805,6.029,CST-1368DR,4909,6136,13348,0.628,551
2022-02-10T01:56:55,42.805,6.029,CST-1368DR,4909,6134,13343,0.629,551
2022-02-10T01:59:56,42.805,6.029,CST-1368DR,4909,6134,13344,0.629,551
2022-02-10T02:02:58,42.805,6.029,CST-1368DR,4909,6135,13345,0.629,551
2022-02-10T02:05:59,42.805,6.029,CST-1368DR,4909,6136,13348,0.628,551
2022-02-10T02:09:01,42.805,6.029,CST-1368DR,4909,6134,13343,0.629,551
2022-02-10T02:12:03,42.805,6.029,CST-1368DR,4909,6135,13345,0.629,551
2022-02-10T02:15:04,42.805,6.029,CST-1368DR,4909,6136,13348,0.628,551
2022-02-10T02:18:06,42.805,6.029,CST-1368DR,4909,6136,13348,0.628,551
2022-02-10T02:21:07,42.805,6.029,CST-1368DR,4909,6136,13348,0.628,551
2022-02-10T02:24:09,42.805,6.029,CST-1368DR,4909,6136,13347,0.628,551
2022-02-10T02:27:10,42.805,6.029,CST-1368DR,4909,6130,13335,0.632,551
2022-02-10T02:30:12,42.805,6.029,CST-1368DR,4909,6136,13348,0.628,551
2022-02-10T02:33:14,42.805,6.029,CST-1368DR,4909,6137,13349,0.627,551
2022-02-10T02:36:15,42.805,6.029,CST-1368DR,4909,6136,13348,0.628,551
2022-02-10T02:39:17,42.805,6.029,CST-1368DR,4909,6136,13348,0.628,551
2022-02-10T02:42:18,42.805,6.029,CST-1368DR,4909,6136,13348,0.628,551
2022-02-10T02:45:20,42.805,6.029,CST-1368DR,4909,6136,13348,0.628,551
2022-02-10T02:48:21,42.805,6.029,CST-1368DR,4909,6136,13346,0.628,550
2022-02-10T02:51:23,42.805,6.029,CST-1368DR,4909,6135,13344,0.629,551
2022-02-10T02:54:25,42.805,6.029,CST-1368DR,4909,6133,13342,0.630,550
2022-02-10T02:57:26,42.805,6.029,CST-1368DR,4909,6136,13347,0.628,551
2022-02-10T03:00:28,42.805,6.029,CST-1368DR,4909,6136,13348,0.628,551
2022-02-10T03:03:29,42.805,6.029,CST-1368DR,4909,6134,13344,0.629,551
2022-02-10T03:06:31,42.805,6.029,CST-1368DR,4909,6136,13346,0.628,551
2022-02-10T03:09:33,42.805,6.029,CST-1368DR,4909,6134,13343,0.629,551
2022-02-10T03:12:34,42.805,6.029,CST-1368DR,4909,6134,13343,0.629,550
2022-02-10T03:15:36,42.805,6.029,CST-1368DR,4909,6135,13346,0.628,551
2022-02-10T03:18:37,42.805,6.029,CST-1368DR,4909,6136,13347,0.628,551
2022-02-10T03:21:39,42.805,6.029,CST-1368DR,4909,6135,13345,0.629,551
2022-02-10T03:24:40,42.805,6.029,CST-1368DR,4909,6135,13345,0.629,551
2022-02-10T03:27:42,42.805,6.029,CST-1368DR,4909,6136,13346,0.628,551
2022-02-10T03:30:44,42.805,6.029,CST-1368DR,4909,6135,13345,0.629,551
2022-02-10T03:33:45,42.805,6.029,CST-1368DR,4909,6136,13346,0.628,551
2022-02-10T03:36:47,42.805,6.029,CST-1368DR,4909,6136,13346,0.628,551
2022-02-10T03:39:48,42.805,6.029,CST-1368DR,4909,6133,13342,0.630,551
2022-02-10T03:42:50,42.805,6.029,CST-1368DR,4909,6135,13344,0.629,551
2022-02-10T03:45:51,42.805,6.029,CST-1368DR,4909,6134,13343,0.629,551
2022-02-10T03:48:53,42.805,6.029,CST-1368DR,4909,6134,13343,0.629,551
2022-02-10T03:51:55,42.805,6.029,CST-1368DR,4909,6136,13348,0.628,551
2022-02-10T03:54:56,42.805,6.029,CST-1368DR,4908,6134,13345,0.629,551
2022-02-10T03:57:58,42.805,6.029,CST-1368DR,4909,6132,13339,0.630,551
2022-02-10T04:00:59,42.805,6.029,CST-1368DR,4909,6136,13347,0.628,551
2022-02-10T04:04:01,42.805,6.029,CST-1368DR,4909,6135,13344,0.629,551
2022-02-10T04:07:03,42.805,6.029,CST-1368DR,4909,6133,13341,0.630,551
2022-02-10T04:10:04,42.805,6.029,CST-1368DR,4909,6135,13344,0.629,551
2022-02-10T04:13:06,42.805,6.029,CST-1368DR,4909,6135,13346,0.628,551
2022-02-10T04:16:07,42.805,6.029,CST-1368DR,4909,6136,13347,0.628,551
2022-02-10T04:19:09,42.805,6.029,CST-1368DR,4909,6136,13346,0.628,551
2022-02-10T04:22:10,42.805,6.029,CST-1368DR,4909,6136,13347,0.628,551
2022-02-10T04:25:12,42.805,6.029,CST-1368DR,4909,6135,13346,0.628,551
2022-02-10T04:28:14,42.805,6.029,CST-1368DR,4909,6135,13345,0.629,551
2022-02-10T04:31:15,42.805,6.029,CST-1368DR,4909,6133,13341,0.630,551
2022-02-10T04:34:17,42.805,6.029,CST-1368DR,4909,6134,13343,0.629,551
2022-02-10T04:37:18,42.805,6.029,CST-1368DR,4909,6134,13343,0.629,551
2022-02-10T04:40:20,42.805,6.029,CST-1368DR,4909,6134,13343,0.629,551
2022-02-10T04:43:22,42.805,6.029,CST-1368DR,4909,6135,13345,0.629,551
2022-02-10T04:46:23,42.805,6.029,CST-1368DR,4909,6135,13344,0.629,551
2022-02-10T04:49:25,42.805,6.029,CST-1368DR,4909,6135,13344,0.629,551
2022-02-10T04:52:26,42.805,6.029,CST-1368DR,4909,6135,13345,0.629,550
2022-02-10T04:55:28,42.805,6.029,CST-1368DR,4909,6134,13342,0.630,551
2022-02-10T04:58:29,42.805,6.029,CST-1368DR,4909,6134,13344,0.629,551
2022-02-10T05:01:31,42.805,6.029,CST-1368DR,4909,6135,13345,0.629,551
2022-02-10T05:04:33,42.805,6.029,CST-1368DR,4908,6134,13345,0.629,551
2022-02-10T05:07:34,42.805,6.029,CST-1368DR,4909,6135,13344,0.629,551
2022-02-10T05:10:36,42.805,6.029,CST-1368DR,4908,6135,13349,0.627,551
2022-02-10T05:13:37,42.805,6.029,CST-1368DR,4909,6135,13345,0.629,551
2022-02-10T05:16:39,42.805,6.029,CST-1368DR,4909,6135,13345,0.629,551
2022-02-10T05:19:40,42.805,6.029,CST-1368DR,4909,6135,13346,0.628,550
2022-02-10T05:22:42,42.805,6.029,CST-1368DR,4908,6134,13346,0.628,551
2022-02-10T05:25:44,42.805,6.029,CST-1368DR,4909,6134,13344,0.629,551
2022-02-10T05:28:45,42.805,6.029,CST-1368DR,4909,6136,13347,0.628,551
2022-02-10T05:31:47,42.805,6.029,CST-1368DR,4909,6134,13343,0.629,551
2022-02-10T05:34:48,42.805,6.029,CST-1368DR,4909,6135,13346,0.628,551
2022-02-10T05:37:50,42.805,6.029,CST-1368DR,4909,6134,13344,0.629,551
2022-02-10T05:40:52,42.805,6.029,CST-1368DR,4909,6135,13345,0.629,551
2022-02-10T05:43:53,42.805,6.029,CST-1368DR,4909,6135,13345,0.629,551
2022-02-10T05:46:55,42.805,6.029,CST-1368DR,4909,6135,13344,0.629,551
2022-02-10T05:49:56,42.805,6.029,CST-1368DR,4908,6134,13346,0.628,551
2022-02-10T05:52:58,42.805,6.029,CST-1368DR,4908,6133,13344,0.629,551
2022-02-10T05:55:59,42.805,6.029,CST-1368DR,4908,6135,13349,0.627,551
2022-02-10T05:59:01,42.805,6.029,CST-1368DR,4908,6135,13347,0.628,551
2022-02-10T06:02:03,42.805,6.029,CST-1368DR,4908,6134,13346,0.628,551
2022-02-10T06:05:04,42.805,6.029,CST-1368DR,4908,6134,13346,0.628,551
2022-02-10T06:08:06,42.805,6.029,CST-1368DR,4908,6134,13346,0.628,551
2022-02-10T06:11:07,42.805,6.029,CST-1368DR,4908,6135,13347,0.628,551
2022-02-10T06:14:09,42.805,6.029,CST-1368DR,4908,6135,13347,0.628,551
2022-02-10T06:17:11,42.805,6.029,CST-1368DR,4908,6134,13346,0.628,551
2022-02-10T06:20:12,42.805,6.029,CST-1368DR,4908,6134,13345,0.629,551
2022-02-10T06:23:14,42.805,6.029,CST-1368DR,4908,6134,13346,0.628,551
2022-02-10T06:26:15,42.805,6.029,CST-1368DR,4908,6134,13346,0.628,551
2022-02-10T06:29:17,42.805,6.029,CST-1368DR,4908,6135,13347,0.628,551
2022-02-10T06:32:18,42.805,6.029,CST-1368DR,4908,6134,13346,0.628,551
2022-02-10T06:35:20,42.805,6.029,CST-1368DR,4908,6130,13338,0.631,551
2022-02-10T06:38:22,42.805,6.029,CST-1368DR,4908,6134,13346,0.628,551
2022-02-10T06:41:23,42.805,6.029,CST-1368DR,4908,6133,13343,0.629,551
2022-02-10T06:44:25,42.805,6.029,CST-1368DR,4908,6134,13346,0.628,551
2022-02-10T06:47:26,42.805,6.029,CST-1368DR,4908,6133,13343,0.629,551
2022-02-10T06:50:28,42.805,6.029,CST-1368DR,4908,6135,13347,0.628,551
2022-02-10T06:53:29,42.805,6.029,CST-1368DR,4908,6134,13345,0.629,551
2022-02-10T06:56:31,42.805,6.029,CST-1368DR,4908,6133,13344,0.629,551
2022-02-10T06:59:33,42.805,6.029,CST-1368DR,4908,6133,13343,0.629,551
2022-02-10T07:02:34,42.805,6.029,CST-1368DR,4908,6134,13345,0.629,550
2022-02-10T07:05:36,42.805,6.029,CST-1368DR,4908,6134,13345,0.629,551
2022-02-10T07:08:37,42.805,6.029,CST-1368DR,4908,6134,13346,0.628,551
2022-02-10T07:11:39,42.805,6.029,CST-1368DR,4908,6135,13347,0.628,551
2022-02-10T07:14:41,42.805,6.029,CST-1368DR,4908,6133,13344,0.629,551
2022-02-10T07:17:42,42.805,6.029,CST-1368DR,4908,6134,13346,0.628,551
2022-02-10T07:20:44,42.805,6.029,CST-1368DR,4908,6132,13341,0.630,551
2022-02-10T07:23:45,42.805,6.029,CST-1368DR,4908,6134,13346,0.628,551
2022-02-10T07:26:47,42.805,6.029,CST-1368DR,4908,6134,13345,0.629,551
2022-02-10T07:29:48,42.805,6.029,CST-1368DR,4908,6134,13345,0.629,551
2022-02-10T07:32:50,42.805,6.029,CST-1368DR,4908,6133,13344,0.629,551
2022-02-10T07:35:52,42.805,6.029,CST-1368DR,4908,6134,13346,0.628,551
2022-02-10T07:38:53,42.805,6.029,CST-1368DR,4908,6134,13345,0.629,551
2022-02-10T07:41:55,42.805,6.029,CST-1368DR,4908,6135,13347,0.628,551
2022-02-10T07:44:56,42.805,6.029,CST-1368DR,4908,6134,13346,0.628,551
2022-02-10T07:47:58,42.805,6.029,CST-1368DR,4908,6132,13341,0.630,551
2022-02-10T07:51:00,42.805,6.029,CST-1368DR,4908,6134,13345,0.629,551
2022-02-10T07:54:01,42.805,6.029,CST-1368DR,4908,6134,13345,0.629,551
2022-02-10T07:57:03,42.805,6.029,CST-1368DR,4908,6135,13347,0.628,551
2022-02-10T08:00:04,42.805,6.029,CST-1368DR,4908,6130,13337,0.631,551
2022-02-10T08:03:06,42.805,6.029,CST-1368DR,4908,6134,13345,0.629,551
2022-02-10T08:06:07,42.805,6.029,CST-1368DR,4908,6134,13346,0.628,551
2022-02-10T08:09:09,42.805,6.029,CST-1368DR,4908,6133,13344,0.629,551
2022-02-10T08:12:11,42.805,6.029,CST-1368DR,4908,6132,13342,0.630,551
2022-02-10T08:15:12,42.805,6.029,CST-1368DR,4908,6133,13343,0.629,551
2022-02-10T08:18:14,42.805,6.029,CST-1368DR,4908,6134,13345,0.629,551
2022-02-10T08:21:15,42.805,6.029,CST-1368DR,4908,6134,13345,0.629,551
2022-02-10T08:24:17,42.805,6.029,CST-1368DR,4908,6133,13344,0.629,551
2022-02-10T08:27:18,42.805,6.029,CST-1368DR,4908,6133,13344,0.629,551
2022-02-10T08:30:20,42.805,6.029,CST-1368DR,4908,6133,13343,0.629,551
2022-02-10T08:33:22,42.805,6.029,CST-1368DR,4908,6133,13343,0.629,551
2022-02-10T08:36:23,42.805,6.029,CST-1368DR,4908,6132,13341,0.630,551
2022-02-10T08:39:25,42.805,6.029,CST-1368DR,4908,6134,13345,0.629,551
2022-02-10T08:42:26,42.805,6.029,CST-1368DR,4908,6134,13345,0.629,551
2022-02-10T08:45:28,42.805,6.029,CST-1368DR,4908,6133,13344,0.629,551
2022-02-10T08:48:30,42.805,6.029,CST-1368DR,4908,6133,13344,0.629,551
2022-02-10T08:51:31,42.805,6.029,CST-1368DR,4908,6127,13330,0.633,551
2022-02-10T08:54:33,42.805,6.029,CST-1368DR,4908,6134,13345,0.629,551
2022-02-10T08:57:34,42.805,6.029,CST-1368DR,4908,6133,13344,0.629,551
2022-02-10T09:00:36,42.805,6.029,CST-1368DR,4908,6132,13340,0.630,551
2022-02-10T09:03:37,42.805,6.029,CST-1368DR,4908,6134,13345,0.629,551
2022-02-10T09:06:39,42.805,6.029,CST-1368DR,4908,6129,13335,0.632,551
2022-02-10T09:09:41,42.805,6.029,CST-1368DR,4908,6134,13345,0.629,551
2022-02-10T09:12:42,42.805,6.029,CST-1368DR,4908,6133,13343,0.629,551
2022-02-10T09:15:44,42.805,6.029,CST-1368DR,4908,6132,13342,0.630,551
2022-02-10T09:18:45,42.805,6.029,CST-1368DR,4908,6133,13343,0.629,551
2022-02-10T09:21:47,42.805,6.029,CST-1368DR,4908,6132,13341,0.630,551
2022-02-10T09:24:48,42.805,6.029,CST-1368DR,4908,6134,13345,0.629,551
2022-02-10T09:27:50,42.805,6.029,CST-1368DR,4908,6133,13344,0.629,551
2022-02-10T09:30:52,42.805,6.029,CST-1368DR,4908,6133,13343,0.629,551
2022-02-10T09:33:53,42.805,6.029,CST-1368DR,4908,6130,13337,0.631,551
2022-02-10T09:36:55,42.805,6.029,CST-1368DR,4908,6133,13343,0.629,551
2022-02-10T09:39:56,42.805,6.029,CST-1368DR,4908,6131,13340,0.630,551
2022-02-10T09:42:58,42.805,6.029,CST-1368DR,4908,6133,13343,0.629,551
2022-02-10T09:46:00,42.805,6.029,CST-1368DR,4908,6132,13340,0.630,551
2022-02-10T09:49:01,42.805,6.029,CST-1368DR,4908,6133,13343,0.629,551
2022-02-10T09:52:03,42.805,6.029,CST-1368DR,4908,6132,13342,0.630,551
2022-02-10T09:55:04,42.805,6.029,CST-1368DR,4908,6133,13343,0.629,551
2022-02-10T09:58:06,42.805,6.029,CST-1368DR,4908,6133,13343,0.629,551
2022-02-10T10:01:07,42.805,6.029,CST-1368DR,4908,6133,13344,0.629,551
2022-02-10T10:04:09,42.805,6.029,CST-1368DR,4908,6131,13339,0.630,551
2022-02-10T10:07:11,42.805,6.029,CST-1368DR,4908,6133,13343,0.629,551
2022-02-10T10:10:12,42.805,6.029,CST-1368DR,4908,6133,13344,0.629,551
2022-02-10T10:13:14,42.805,6.029,CST-1368DR,4908,6133,13344,0.629,551
2022-02-10T10:16:15,42.805,6.029,CST-1368DR,4908,6133,13343,0.629,551
2022-02-10T10:19:17,42.805,6.029,CST-1368DR,4908,6132,13342,0.630,551
2022-02-10T10:22:19,42.805,6.029,CST-1368DR,4908,6132,13341,0.630,551
2022-02-10T10:25:20,42.805,6.029,CST-1368DR,4908,6133,13343,0.629,551
2022-02-10T10:28:22,42.805,6.029,CST-1368DR,4908,6132,13341,0.630,551
2022-02-10T10:31:23,42.805,6.029,CST-1368DR,4908,6132,13341,0.630,551
2022-02-10T10:34:25,42.805,6.029,CST-1368DR,4908,6133,13343,0.629,551
2022-02-10T10:37:26,42.805,6.029,CST-1368DR,4908,6133,13343,0.629,551
2022-02-10T10:40:28,42.805,6.029,CST-1368DR,4908,6132,13340,0.630,551
2022-02-10T10:43:30,42.805,6.029,CST-1368DR,4908,6130,13336,0.631,551
2022-02-10T10:46:31,42.805,6.029,CST-1368DR,4908,6131,13339,0.630,551
2022-02-10T10:49:33,42.805,6.029,CST-1368DR,4908,6132,13340,0.630,551
2022-02-10T10:52:34,42.805,6.029,CST-1368DR,4908,6132,13341,0.630,551
2022-02-10T10:55:36,42.805,6.029,CST-1368DR,4908,6133,13343,0.629,551
2022-02-10T10:58:37,42.805,6.029,CST-1368DR,4908,6133,13343,0.629,551
2022-02-10T11:01:39,42.805,6.029,CST-1368DR,4908,6132,13340,0.630,551
2022-02-10T11:04:41,42.805,6.029,CST-1368DR,4908,6132,13341,0.630,551
2022-02-10T11:07:42,42.805,6.029,CST-1368DR,4908,6132,13340,0.630,551
2022-02-10T11:10:44,42.805,6.029,CST-1368DR,4908,6131,13339,0.630,551
2022-02-10T11:13:45,42.805,6.029,CST-1368DR,4908,6131,13339,0.630,551
2022-02-10T11:16:47,42.805,6.029,CST-1368DR,4908,6130,13336,0.631,551
2022-02-10T11:19:49,42.805,6.029,CST-1368DR,4908,6132,13340,0.630,551
2022-02-10T11:22:50,42.805,6.029,CST-1368DR,4908,6132,13341,0.630,550
2022-02-10T11:25:52,42.805,6.029,CST-1368DR,4908,6131,13340,0.630,551
2022-02-10T11:28:53,42.805,6.029,CST-1368DR,4908,6131,13339,0.630,551
2022-02-10T11:31:55,42.805,6.029,CST-1368DR,4908,6131,13338,0.631,551
2022-02-10T11:34:56,42.805,6.029,CST-1368DR,4908,6131,13340,0.630,551
2022-02-10T11:37:58,42.805,6.029,CST-1368DR,4908,6131,13339,0.630,551
2022-02-10T11:41:00,42.805,6.029,CST-1368DR,4908,6131,13340,0.630,551
2022-02-10T11:44:01,42.805,6.029,CST-1368DR,4908,6131,13339,0.630,551
2022-02-10T11:47:03,42.805,6.029,CST-1368DR,4908,6131,13340,0.630,551
2022-02-10T11:50:04,42.805,6.029,CST-1368DR,4908,6131,13339,0.630,551
2022-02-10T11:53:06,42.805,6.029,CST-1368DR,4908,6132,13342,0.630,551
2022-02-10T11:56:08,42.805,6.029,CST-1368DR,4908,6131,13340,0.630,551
2022-02-10T11:59:09,42.805,6.029,CST-1368DR,4908,6130,13338,0.631,551
2022-02-10T12:02:11,42.805,6.029,CST-1368DR,4908,6130,13336,0.631,551
2022-02-10T12:05:12,42.805,6.029,CST-1368DR,4908,6131,13339,0.630,551
2022-02-10T12:08:14,42.805,6.029,CST-1368DR,4908,6131,13339,0.630,551
2022-02-10T12:11:15,42.805,6.029,CST-1368DR,4908,6132,13342,0.630,551
2022-02-10T12:14:17,42.805,6.029,CST-1368DR,4908,6132,13341,0.630,551
2022-02-10T12:17:19,42.805,6.029,CST-1368DR,4908,6131,13339,0.630,551
2022-02-10T12:20:20,42.805,6.029,CST-1368DR,4908,6131,13339,0.630,551
2022-02-10T12:23:22,42.805,6.029,CST-1368DR,4908,6130,13338,0.631,551
2022-02-10T12:26:23,42.805,6.029,CST-1368DR,4908,6130,13337,0.631,551
2022-02-10T12:29:25,42.805,6.029,CST-1368DR,4908,6131,13339,0.630,551
2022-02-10T12:32:26,42.805,6.029,CST-1368DR,4908,6131,13338,0.631,551
2022-02-10T12:35:28,42.805,6.029,CST-1368DR,4908,6130,13337,0.631,551
2022-02-10T12:38:30,42.805,6.029,CST-1368DR,4908,6130,13337,0.631,551
2022-02-10T12:41:31,42.805,6.029,CST-1368DR,4908,6130,13338,0.631,551
2022-02-10T12:44:33,42.805,6.029,CST-1368DR,4908,6130,13337,0.631,551
2022-02-10T12:47:34,42.805,6.029,CST-1368DR,4908,6131,13340,0.630,551
2022-02-10T12:50:36,42.805,6.029,CST-1368DR,4908,6131,13338,0.631,551
2022-02-10T12:53:38,42.805,6.029,CST-1368DR,4908,6131,13338,0.631,551
2022-02-10T12:56:39,42.805,6.029,CST-1368DR,4908,6131,13338,0.631,551
2022-02-10T12:59:41,42.805,6.029,CST-1368DR,4908,6131,13339,0.630,551
2022-02-10T13:02:42,42.805,6.029,CST-1368DR,4908,6130,13338,0.631,551
2022-02-10T13:05:44,42.805,6.029,CST-1368DR,4908,6130,13337,0.631,551
2022-02-10T13:08:45,42.805,6.029,CST-1368DR,4908,6131,13338,0.631,551
2022-02-10T13:11:47,42.805,6.029,CST-1368DR,4908,6132,13340,0.630,551
2022-02-10T13:14:49,42.805,6.029,CST-1368DR,4908,6130,13337,0.631,551
2022-02-10T13:17:50,42.805,6.029,CST-1368DR,4908,6129,13334,0.632,551
2022-02-10T13:20:52,42.805,6.029,CST-1368DR,4908,6130,13337,0.631,551
2022-02-10T13:23:53,42.805,6.029,CST-1368DR,4908,6131,13339,0.630,551
2022-02-10T13:26:55,42.805,6.029,CST-1368DR,4908,6130,13337,0.631,551
2022-02-10T13:29:57,42.805,6.029,CST-1368DR,4908,6131,13338,0.631,551
2022-02-10T13:32:58,42.805,6.029,CST-1368DR,4908,6130,13337,0.631,551
2022-02-10T13:36:00,42.805,6.029,CST-1368DR,4908,6129,13335,0.632,551
2022-02-10T13:39:01,42.805,6.029,CST-1368DR,4908,6129,13335,0.632,551
2022-02-10T13:42:03,42.805,6.029,CST-1368DR,4908,6130,13336,0.631,551
2022-02-10T13:45:04,42.805,6.029,CST-1368DR,4908,6129,13335,0.632,551
2022-02-10T13:48:06,42.805,6.029,CST-1368DR,4908,6130,13336,0.631,551
2022-02-10T13:51:08,42.805,6.029,CST-1368DR,4908,6130,13338,0.631,551
2022-02-10T13:54:09,42.805,6.029,CST-1368DR,4908,6130,13338,0.631,551
2022-02-10T13:57:11,42.805,6.029,CST-1368DR,4908,6130,13338,0.631,551
2022-02-10T14:00:12,42.805,6.029,CST-1368DR,4908,6128,13332,0.633,551
2022-02-10T14:03:14,42.805,6.029,CST-1368DR,4908,6130,13337,0.631,551
2022-02-10T14:06:15,42.805,6.029,CST-1368DR,4908,6131,13338,0.631,551
2022-02-10T14:09:17,42.805,6.029,CST-1368DR,4908,6130,13336,0.631,551
2022-02-10T14:12:19,42.805,6.029,CST-1368DR,4908,6131,13339,0.630,551
2022-02-10T14:15:20,42.805,6.029,CST-1368DR,4908,6130,13337,0.631,551
2022-02-10T14:18:22,42.805,6.029,CST-1368DR,4908,6130,13336,0.631,551
2022-02-10T14:21:23,42.805,6.029,CST-1368DR,4908,6129,13335,0.632,551
2022-02-10T14:24:25,42.805,6.029,CST-1368DR,4908,6130,13338,0.631,551
2022-02-10T14:27:27,42.805,6.029,CST-1368DR,4908,6129,13335,0.632,551
2022-02-10T14:30:28,42.805,6.029,CST-1368DR,4908,6130,13337,0.631,551
2022-02-10T14:33:30,42.805,6.029,CST-1368DR,4908,6128,13332,0.633,551
2022-02-10T14:36:31,42.805,6.029,CST-1368DR,4908,6131,13339,0.630,551
2022-02-10T14:39:33,42.805,6.029,CST-1368DR,4908,6130,13337,0.631,551
2022-02-10T14:42:34,42.805,6.029,CST-1368DR,4908,6130,13336,0.631,551
2022-02-10T14:45:36,42.805,6.029,CST-1368DR,4908,6127,13330,0.633,551
2022-02-10T14:48:38,42.805,6.029,CST-1368DR,4908,6130,13338,0.631,551
2022-02-10T14:51:39,42.805,6.029,CST-1368DR,4908,6129,13335,0.632,551
2022-02-10T14:54:41,42.805,6.029,CST-1368DR,4908,6129,13335,0.632,551
2022-02-10T14:57:42,42.805,6.029,CST-1368DR,4908,6130,13336,0.631,551
2022-02-10T15:00:44,42.805,6.029,CST-1368DR,4908,6129,13334,0.632,551
2022-02-10T15:03:45,42.805,6.029,CST-1368DR,4908,6129,13335,0.632,551
2022-02-10T15:06:47,42.805,6.029,CST-1368DR,4908,6130,13338,0.631,551
2022-02-10T15:09:49,42.805,6.029,CST-1368DR,4908,6130,13338,0.631,551
2022-02-10T15:12:50,42.805,6.029,CST-1368DR,4908,6130,13338,0.631,551
2022-02-10T15:15:52,42.805,6.029,CST-1368DR,4908,6130,13337,0.631,550
2022-02-10T15:18:53,42.805,6.029,CST-1368DR,4908,6129,13334,0.632,551
2022-02-10T15:21:55,42.805,6.029,CST-1368DR,4908,6129,13334,0.632,551
2022-02-10T15:24:57,42.805,6.029,CST-1368DR,4908,6130,13336,0.631,551
2022-02-10T15:27:58,42.805,6.029,CST-1368DR,4908,6130,13336,0.631,551
2022-02-10T15:31:00,42.805,6.029,CST-1368DR,4908,6129,13335,0.632,551
2022-02-10T15:34:01,42.805,6.029,CST-1368DR,4908,6129,13335,0.632,551
2022-02-10T15:37:03,42.805,6.029,CST-1368DR,4908,6130,13338,0.631,551
2022-02-10T15:40:04,42.805,6.029,CST-1368DR,4908,6130,13337,0.631,551
2022-02-10T15:43:06,42.805,6.029,CST-1368DR,4908,6129,13335,0.632,551
2022-02-10T15:46:08,42.805,6.029,CST-1368DR,4908,6128,13333,0.632,551
2022-02-10T15:49:09,42.805,6.029,CST-1368DR,4908,6130,13336,0.631,551
2022-02-10T15:52:11,42.805,6.029,CST-1368DR,4908,6130,13337,0.631,551
2022-02-10T15:55:12,42.805,6.029,CST-1368DR,4908,6129,13334,0.632,551
2022-02-10T15:58:14,42.805,6.029,CST-1368DR,4908,6129,13335,0.632,551
2022-02-10T16:01:16,42.805,6.029,CST-1368DR,4908,6127,13331,0.633,551
2022-02-10T16:04:17,42.805,6.029,CST-1368DR,4908,6129,13335,0.632,551
2022-02-10T16:07:19,42.805,6.029,CST-1368DR,4908,6129,13335,0.632,551
2022-02-10T16:10:20,42.805,6.029,CST-1368DR,4908,6129,13335,0.632,551
2022-02-10T16:13:22,42.805,6.029,CST-1368DR,4908,6130,13336,0.631,551
2022-02-10T16:16:23,42.805,6.029,CST-1368DR,4908,6129,13335,0.632,551
2022-02-10T16:19:25,42.805,6.029,CST-1368DR,4908,6129,13334,0.632,551
2022-02-10T16:22:27,42.805,6.029,CST-1368DR,4908,6129,13335,0.632,551
2022-02-10T16:25:28,42.805,6.029,CST-1368DR,4908,6129,13334,0.632,551
2022-02-10T16:28:30,42.805,6.029,CST-1368DR,4908,6130,13336,0.631,551
2022-02-10T16:31:31,42.805,6.029,CST-1368DR,4908,6127,13331,0.633,551
2022-02-10T16:34:33,42.805,6.029,CST-1368DR,4908,6129,13335,0.632,551
2022-02-10T16:37:35,42.805,6.029,CST-1368DR,4908,6128,13333,0.632,551
2022-02-10T16:40:36,42.805,6.029,CST-1368DR,4908,6127,13331,0.633,551
2022-02-10T16:43:38,42.805,6.029,CST-1368DR,4908,6126,13328,0.634,551
2022-02-10T16:46:39,42.805,6.029,CST-1368DR,4908,6128,13332,0.633,551
2022-02-10T16:49:41,42.805,6.029,CST-1368DR,4908,6128,13333,0.632,551
2022-02-10T16:52:42,42.805,6.029,CST-1368DR,4908,6128,13332,0.633,551